Location: Unspecified
(42.3650°N, 71.1030°W)
Time: 21:55:56
(UTC+00:00)

SL-16 R/B - Pass Details

Date: 02 March 2024
Orbit: 842 x 845 km, 71.0° (Epoch: 15 April)

Event Time Altitude Azimuth Distance (km) Brightness Sun altitude
Rises 23:02:52 0° 337° (NNW) 3,413 5.6 -5.7°
Reaches altitude 10° 23:05:21 10° 341° (NNW) 2,474 4.9 -6.2°
Maximum altitude 23:10:59 66° 63° (ENE) 924 2.2 -7.2°
Drops below altitude 10° 23:16:36 10° 146° (SE) 2,460 4.3 -8.3°
Sets 23:19:04 0° 149° (SSE) 3,391 5.0 -8.7°
